| time (UTC) | temp C | wind direction | speed KPH | gust KPH | rain 1hr cm | rain 24hr cm | rain mn cm | humidity % | barometer mb |
| 20260510132833 | 18 | 11 | 1.6 | 3.2 | 0.00 | 0.00 | 0.00 | 84 | 1011.8 |
| 20260510132332 | 18 | 19 | 1.6 | 1.6 | 0.00 | 0.00 | 0.00 | 85 | 1011.7 |
| 20260510131828 | 18 | 29 | 0.0 | 3.2 | 0.00 | 0.00 | 0.00 | 85 | 1012.0 |
| 20260510131326 | 18 | 15 | 1.6 | 3.2 | 0.00 | 0.00 | 0.00 | 85 | 1011.7 |
| 20260510130822 | 18 | 22 | 1.6 | 3.2 | 0.00 | 0.00 | 0.00 | 86 | 1011.7 |
| 20260510130319 | 17 | 31 | 1.6 | 1.6 | 0.00 | 0.00 | 0.00 | 87 | 1011.9 |
| 20260510125816 | 17 | 31 | 0.0 | 4.8 | 0.00 | 0.00 | 0.00 | 88 | 1011.7 |
| 20260510125312 | 17 | 354 | 4.8 | 4.8 | 0.00 | 0.00 | 0.00 | 89 | 1011.6 |
| 20260510124809 | 17 | 319 | 4.8 | 4.8 | 0.00 | 0.00 | 0.00 | 90 | 1011.7 |
| 20260510124306 | 17 | 27 | 1.6 | 1.6 | 0.00 | 0.00 | 0.00 | 91 | 1011.8 |
| 20260510123801 | 17 | 12 | 1.6 | 3.2 | 0.00 | 0.00 | 0.00 | 92 | 1011.5 |
| 20260510123257 | 17 | 25 | 1.6 | 3.2 | 0.00 | 0.00 | 0.00 | 93 | 1011.6 |
| 20260510122753 | 17 | 25 | 0.0 | 1.6 | 0.00 | 0.00 | 0.00 | 93 | 1011.5 |
| 20260510122250 | 16 | 28 | 0.0 | 1.6 | 0.00 | 0.00 | 0.00 | 93 | 1011.5 |
| 20260510121746 | 16 | 28 | 0.0 | 1.6 | 0.00 | 0.00 | 0.00 | 93 | 1011.4 |
| 20260510121244 | 16 | 16 | 1.6 | 1.6 | 0.00 | 0.00 | 0.00 | 93 | 1011.3 |
| 20260510120741 | 16 | 20 | 1.6 | 3.2 | 0.00 | 0.00 | 0.00 | 93 | 1011.3 |
| 20260510120238 | 16 | 23 | 0.0 | 1.6 | 0.00 | 0.00 | 0.00 | 93 | 1011.4 |
| 20260510115733 | 16 | 23 | 1.6 | 1.6 | 0.00 | 0.00 | 0.00 | 93 | 1011.2 |
| 20260510115232 | 16 | 21 | 1.6 | 1.6 | 0.00 | 0.00 | 0.00 | 93 | 1011.3 |
| 20260510114727 | 16 | 14 | 1.6 | 1.6 | 0.00 | 0.00 | 0.00 | 93 | 1011.1 |
| 20260510114224 | 16 | 337 | 3.2 | 3.2 | 0.00 | 0.00 | 0.00 | 93 | 1011.0 |
| 20260510113719 | 16 | 346 | 3.2 | 3.2 | 0.00 | 0.00 | 0.00 | 93 | 1011.0 |
| 20260510113216 | 16 | 14 | 1.6 | 1.6 | 0.00 | 0.00 | 0.00 | 93 | 1010.9 |
| 20260510112712 | 16 | 10 | 1.6 | 1.6 | 0.00 | 0.00 | 0.00 | 93 | 1010.8 |
| 20260510112210 | 16 | 14 | 0.0 | 1.6 | 0.00 | 0.00 | 0.00 | 93 | 1010.8 |
| 20260510111705 | 16 | 13 | 0.0 | 1.6 | 0.00 | 0.00 | 0.00 | 93 | 1010.5 |
| 20260510111203 | 16 | 13 | 0.0 | 1.6 | 0.00 | 0.00 | 0.00 | 93 | 1010.6 |
| 20260510110656 | 16 | 17 | 0.0 | 1.6 | 0.00 | 0.00 | 0.00 | 93 | 1010.7 |
| 20260510110155 | 16 | 17 | 0.0 | 0.0 | 0.00 | 0.00 | 0.00 | 93 | 1010.6 |
| 20260510105650 | 16 | 17 | 0.0 | 1.6 | 0.00 | 0.00 | 0.00 | 93 | 1010.3 |
| 20260510105149 | 16 | 17 | 0.0 | 1.6 | 0.00 | 0.00 | 0.00 | 93 | 1010.5 |
| 20260510104647 | 16 | 17 | 0.0 | 1.6 | 0.00 | 0.00 | 0.00 | 92 | 1010.3 |
| 20260510104144 | 16 | 16 | 1.6 | 1.6 | 0.00 | 0.00 | 0.00 | 92 | 1010.1 |
| 20260510103640 | 16 | 26 | 0.0 | 0.0 | 0.00 | 0.00 | 0.00 | 92 | 1010.1 |
| 20260510103137 | 16 | 25 | 1.6 | 1.6 | 0.00 | 0.00 | 0.00 | 92 | 1010.2 |
| 20260510102632 | 16 | 33 | 0.0 | 0.0 | 0.00 | 0.00 | 0.00 | 92 | 1009.8 |
| 20260510102128 | 16 | 33 | 1.6 | 1.6 | 0.00 | 0.00 | 0.00 | 92 | 1009.7 |
| 20260510101626 | 16 | 38 | 0.0 | 0.0 | 0.00 | 0.00 | 0.00 | 92 | 1009.7 |
| 20260510101124 | 16 | 40 | 0.0 | 0.0 | 0.00 | 0.00 | 0.00 | 92 | 1009.7 |
| 20260510100620 | 16 | 40 | 0.0 | 0.0 | 0.00 | 0.00 | 0.00 | 92 | 1009.6 |
| 20260510100118 | 16 | 43 | 0.0 | 1.6 | 0.00 | 0.00 | 0.00 | 92 | 1009.4 |
| 20260510095613 | 16 | 43 | 0.0 | 1.6 | 0.00 | 0.00 | 0.00 | 92 | 1009.5 |
| 20260510095113 | 16 | 40 | 0.0 | 0.0 | 0.00 | 0.00 | 0.00 | 92 | 1009.4 |
| 20260510094612 | 16 | 42 | 0.0 | 0.0 | 0.00 | 0.00 | 0.00 | 92 | 1009.3 |
| 20260510094108 | 16 | 20 | 0.0 | 1.6 | 0.00 | 0.00 | 0.00 | 92 | 1009.6 |
| 20260510093604 | 16 | 23 | 0.0 | 1.6 | 0.00 | 0.00 | 0.00 | 92 | 1009.4 |
| 20260510093101 | 16 | 27 | 0.0 | 0.0 | 0.00 | 0.00 | 0.00 | 91 | 1009.3 |
| 20260510092558 | 17 | 27 | 0.0 | 1.6 | 0.00 | 0.00 | 0.00 | 92 | 1009.4 |
| 20260510092057 | 17 | 1 | 1.6 | 3.2 | 0.00 | 0.00 | 0.00 | 92 | 1009.2 |
| 20260510091555 | 17 | 355 | 3.2 | 3.2 | 0.00 | 0.00 | 0.00 | 92 | 1009.4 |
| 20260510091051 | 17 | 315 | 4.8 | 4.8 | 0.00 | 0.00 | 0.00 | 92 | 1009.1 |
| 20260510090548 | 17 | 4 | 1.6 | 3.2 | 0.00 | 0.00 | 0.00 | 92 | 1009.3 |
| 20260510090043 | 17 | 9 | 1.6 | 3.2 | 0.00 | 0.00 | 0.00 | 91 | 1009.1 |
| 20260510085538 | 17 | 9 | 1.6 | 3.2 | 0.00 | 0.00 | 0.00 | 92 | 1008.9 |
| 20260510085035 | 17 | 358 | 3.2 | 3.2 | 0.00 | 0.00 | 0.00 | 92 | 1008.9 |
| 20260510084531 | 17 | 23 | 0.0 | 0.0 | 0.00 | 0.00 | 0.00 | 92 | 1008.7 |
| 20260510084028 | 17 | 23 | 0.0 | 0.0 | 0.00 | 0.00 | 0.00 | 92 | 1008.6 |
| 20260510083525 | 17 | 24 | 0.0 | 0.0 | 0.00 | 0.00 | 0.00 | 92 | 1008.9 |
| 20260510083021 | 17 | 28 | 0.0 | 0.0 | 0.00 | 0.00 | 0.00 | 92 | 1008.6 |
| 20260510082519 | 17 | 33 | 0.0 | 0.0 | 0.00 | 0.00 | 0.00 | 92 | 1008.7 |
| 20260510082018 | 17 | 33 | 0.0 | 0.0 | 0.00 | 0.00 | 0.00 | 92 | 1008.8 |
| 20260510081514 | 17 | 34 | 0.0 | 0.0 | 0.00 | 0.00 | 0.00 | 92 | 1008.6 |
| 20260510081010 | 17 | 16 | 1.6 | 3.2 | 0.00 | 0.00 | 0.00 | 92 | 1008.5 |
| 20260510080509 | 17 | 316 | 4.8 | 4.8 | 0.00 | 0.00 | 0.00 | 92 | 1008.7 |
| 20260510080006 | 17 | 31 | 0.0 | 3.2 | 0.00 | 0.00 | 0.00 | 92 | 1008.7 |
| 20260510075503 | 17 | 19 | 1.6 | 3.2 | 0.00 | 0.00 | 0.00 | 92 | 1008.6 |
| 20260510075000 | 17 | 4 | 1.6 | 3.2 | 0.00 | 0.00 | 0.00 | 92 | 1008.4 |
| 20260510074457 | 17 | 9 | 3.2 | 3.2 | 0.00 | 0.00 | 0.00 | 92 | 1008.5 |
| 20260510073953 | 17 | 3 | 1.6 | 3.2 | 0.00 | 0.00 | 0.00 | 92 | 1008.3 |
| 20260510073449 | 17 | 43 | 0.0 | 0.0 | 0.00 | 0.00 | 0.00 | 92 | 1008.3 |
| 20260510072946 | 17 | 43 | 0.0 | 1.6 | 0.00 | 0.00 | 0.00 | 92 | 1008.2 |
| 20260510072443 | 17 | 41 | 0.0 | 0.0 | 0.00 | 0.00 | 0.00 | 92 | 1008.3 |
| 20260510071938 | 17 | 46 | 0.0 | 0.0 | 0.00 | 0.00 | 0.00 | 92 | 1008.3 |
| 20260510071435 | 17 | 12 | 1.6 | 3.2 | 0.00 | 0.00 | 0.00 | 92 | 1008.3 |
| 20260510070933 | 17 | 359 | 1.6 | 3.2 | 0.00 | 0.00 | 0.00 | 91 | 1008.3 |
| 20260510070430 | 17 | 2 | 3.2 | 3.2 | 0.00 | 0.00 | 0.00 | 91 | 1008.3 |
| 20260510065926 | 17 | 30 | 0.0 | 0.0 | 0.00 | 0.00 | 0.00 | 91 | 1008.4 |
| 20260510065423 | 17 | 30 | 0.0 | 0.0 | 0.00 | 0.00 | 0.00 | 91 | 1008.4 |
| 20260510064919 | 17 | 30 | 0.0 | 0.0 | 0.00 | 0.00 | 0.00 | 91 | 1008.3 |
| 20260510064417 | 17 | 30 | 0.0 | 0.0 | 0.00 | 0.00 | 0.00 | 91 | 1008.4 |
| 20260510063913 | 17 | 29 | 0.0 | 0.0 | 0.00 | 0.00 | 0.00 | 91 | 1008.5 |
| 20260510063409 | 17 | 29 | 0.0 | 0.0 | 0.00 | 0.00 | 0.00 | 91 | 1008.2 |
| 20260510062907 | 17 | 29 | 0.0 | 0.0 | 0.00 | 0.00 | 0.00 | 91 | 1008.4 |
| 20260510062401 | 17 | 30 | 0.0 | 0.0 | 0.00 | 0.00 | 0.00 | 91 | 1008.4 |
| 20260510061857 | 17 | 30 | 0.0 | 0.0 | 0.00 | 0.00 | 0.00 | 91 | 1008.1 |
| 20260510061354 | 17 | 30 | 0.0 | 0.0 | 0.00 | 0.00 | 0.00 | 91 | 1008.5 |
| 20260510060850 | 17 | 29 | 0.0 | 0.0 | 0.00 | 0.00 | 0.00 | 90 | 1008.4 |
| 20260510060347 | 17 | 29 | 0.0 | 0.0 | 0.00 | 0.00 | 0.00 | 90 | 1008.4 |
| 20260510055844 | 17 | 29 | 0.0 | 0.0 | 0.00 | 0.00 | 0.00 | 90 | 1008.6 |
| 20260510055343 | 17 | 29 | 0.0 | 0.0 | 0.00 | 0.00 | 0.00 | 90 | 1008.3 |
| 20260510054842 | 17 | 29 | 0.0 | 0.0 | 0.00 | 0.00 | 0.00 | 90 | 1008.3 |
| 20260510054338 | 17 | 29 | 0.0 | 0.0 | 0.00 | 0.00 | 0.00 | 90 | 1008.5 |
| 20260510053833 | 17 | 29 | 0.0 | 0.0 | 0.00 | 0.00 | 0.00 | 90 | 1008.6 |
| 20260510053329 | 17 | 30 | 0.0 | 0.0 | 0.00 | 0.00 | 0.00 | 90 | 1008.7 |
| 20260510052826 | 17 | 29 | 0.0 | 0.0 | 0.00 | 0.00 | 0.00 | 90 | 1008.7 |
| 20260510052321 | 17 | 29 | 0.0 | 0.0 | 0.00 | 0.00 | 0.00 | 90 | 1008.7 |
| 20260510051818 | 17 | 30 | 0.0 | 0.0 | 0.00 | 0.00 | 0.00 | 90 | 1008.5 |
| 20260510051315 | 17 | 29 | 0.0 | 0.0 | 0.00 | 0.00 | 0.00 | 90 | 1008.9 |
| 20260510050812 | 17 | 29 | 0.0 | 1.6 | 0.00 | 0.00 | 0.00 | 90 | 1008.6 |
| 20260510050308 | 17 | 29 | 0.0 | 0.0 | 0.00 | 0.00 | 0.00 | 90 | 1008.7 |
| 20260510045805 | 17 | 30 | 0.0 | 0.0 | 0.00 | 0.00 | 0.00 | 89 | 1008.7 |
| 20260510045305 | 17 | 30 | 0.0 | 0.0 | 0.00 | 0.00 | 0.00 | 89 | 1008.8 |
| 20260510044759 | 17 | 29 | 0.0 | 0.0 | 0.00 | 0.00 | 0.00 | 89 | 1008.6 |
| 20260510044256 | 17 | 29 | 0.0 | 0.0 | 0.00 | 0.00 | 0.00 | 89 | 1008.7 |
| 20260510043752 | 17 | 29 | 0.0 | 0.0 | 0.00 | 0.00 | 0.00 | 89 | 1008.7 |
| 20260510043248 | 17 | 29 | 0.0 | 0.0 | 0.00 | 0.00 | 0.00 | 89 | 1008.7 |
| 20260510042746 | 17 | 30 | 0.0 | 0.0 | 0.00 | 0.00 | 0.00 | 89 | 1008.8 |
| 20260510042241 | 17 | 30 | 0.0 | 0.0 | 0.00 | 0.00 | 0.00 | 89 | 1008.7 |
| 20260510041738 | 17 | 30 | 0.0 | 0.0 | 0.00 | 0.00 | 0.00 | 89 | 1008.6 |
| 20260510041236 | 17 | 30 | 0.0 | 0.0 | 0.00 | 0.00 | 0.00 | 89 | 1008.7 |
| 20260510040733 | 17 | 30 | 0.0 | 0.0 | 0.00 | 0.00 | 0.00 | 89 | 1008.7 |
| 20260510040230 | 17 | 30 | 0.0 | 0.0 | 0.00 | 0.00 | 0.00 | 89 | 1008.7 |
| 20260510035725 | 17 | 30 | 0.0 | 0.0 | 0.00 | 0.00 | 0.00 | 89 | 1008.6 |
| 20260510035221 | 18 | 30 | 0.0 | 0.0 | 0.00 | 0.00 | 0.00 | 89 | 1008.6 |
| 20260510034717 | 18 | 30 | 0.0 | 0.0 | 0.00 | 0.00 | 0.00 | 89 | 1008.6 |
| 20260510034215 | 18 | 30 | 0.0 | 0.0 | 0.00 | 0.00 | 0.00 | 88 | 1008.6 |
| 20260510033711 | 18 | 30 | 0.0 | 0.0 | 0.00 | 0.00 | 0.00 | 88 | 1008.6 |
| 20260510033209 | 18 | 30 | 0.0 | 0.0 | 0.00 | 0.00 | 0.00 | 88 | 1008.6 |
| 20260510032705 | 17 | 30 | 0.0 | 0.0 | 0.00 | 0.00 | 0.00 | 88 | 1008.6 |
| 20260510032201 | 18 | 30 | 0.0 | 0.0 | 0.00 | 0.00 | 0.00 | 88 | 1008.5 |
| 20260510031655 | 18 | 30 | 0.0 | 0.0 | 0.00 | 0.00 | 0.00 | 88 | 1008.4 |
| 20260510031152 | 18 | 27 | 0.0 | 0.0 | 0.00 | 0.00 | 0.00 | 87 | 1008.8 |
| 20260510030646 | 18 | 27 | 0.0 | 0.0 | 0.00 | 0.00 | 0.00 | 87 | 1008.7 |
| 20260510030144 | 18 | 27 | 0.0 | 0.0 | 0.00 | 0.00 | 0.00 | 87 | 1008.6 |
| 20260510025641 | 18 | 27 | 0.0 | 0.0 | 0.00 | 0.00 | 0.00 | 87 | 1008.8 |
| 20260510025139 | 18 | 27 | 0.0 | 0.0 | 0.00 | 0.00 | 0.00 | 87 | 1008.5 |
| 20260510024635 | 18 | 27 | 0.0 | 0.0 | 0.00 | 0.00 | 0.00 | 87 | 1008.7 |
| 20260510024132 | 18 | 27 | 0.0 | 0.0 | 0.00 | 0.00 | 0.00 | 86 | 1008.5 |
| 20260510023628 | 18 | 27 | 0.0 | 0.0 | 0.00 | 0.00 | 0.00 | 86 | 1008.6 |
| 20260510023125 | 18 | 27 | 0.0 | 0.0 | 0.00 | 0.00 | 0.00 | 86 | 1008.4 |
| 20260510022625 | 18 | 27 | 0.0 | 0.0 | 0.00 | 0.00 | 0.00 | 86 | 1008.5 |
| 20260510022120 | 18 | 27 | 0.0 | 0.0 | 0.00 | 0.00 | 0.00 | 85 | 1008.5 |
| 20260510021616 | 19 | 16 | 0.0 | 1.6 | 0.00 | 0.00 | 0.00 | 86 | 1008.5 |
| 20260510021114 | 19 | 15 | 0.0 | 0.0 | 0.00 | 0.00 | 0.00 | 85 | 1008.5 |
| 20260510020614 | 19 | 15 | 0.0 | 0.0 | 0.00 | 0.00 | 0.00 | 85 | 1008.4 |
| 20260510020109 | 19 | 15 | 0.0 | 1.6 | 0.00 | 0.00 | 0.00 | 85 | 1008.4 |
| 20260510015606 | 20 | 14 | 0.0 | 1.6 | 0.00 | 0.00 | 0.00 | 85 | 1008.3 |
| 20260510015102 | 20 | 10 | 1.6 | 3.2 | 0.00 | 0.00 | 0.00 | 84 | 1008.4 |
| 20260510014558 | 20 | 8 | 3.2 | 3.2 | 0.00 | 0.00 | 0.00 | 83 | 1008.1 |
| 20260510014056 | 20 | 13 | 1.6 | 3.2 | 0.00 | 0.00 | 0.00 | 83 | 1008.3 |
| 20260510013550 | 20 | 7 | 1.6 | 3.2 | 0.00 | 0.00 | 0.00 | 83 | 1007.9 |
| 20260510013046 | 20 | 4 | 3.2 | 3.2 | 0.00 | 0.00 | 0.00 | 83 | 1007.9 |
| 20260510012539 | 20 | 355 | 3.2 | 3.2 | 0.00 | 0.00 | 0.00 | 83 | 1007.9 |
| 20260510012037 | 20 | 345 | 3.2 | 3.2 | 0.00 | 0.00 | 0.00 | 82 | 1007.8 |
| 20260510011536 | 20 | 329 | 3.2 | 4.8 | 0.00 | 0.00 | 0.00 | 82 | 1007.9 |
| 20260510011032 | 20 | 346 | 3.2 | 3.2 | 0.00 | 0.00 | 0.00 | 82 | 1007.8 |
| 20260510010529 | 20 | 351 | 3.2 | 3.2 | 0.00 | 0.00 | 0.00 | 82 | 1007.7 |
| 20260510010026 | 20 | 338 | 3.2 | 3.2 | 0.00 | 0.00 | 0.00 | 82 | 1008.0 |
| 20260510005521 | 20 | 349 | 3.2 | 3.2 | 0.00 | 0.00 | 0.00 | 81 | 1007.5 |
| 20260510005020 | 20 | 12 | 1.6 | 3.2 | 0.00 | 0.00 | 0.00 | 81 | 1007.6 |
| 20260510004517 | 20 | 2 | 3.2 | 3.2 | 0.00 | 0.00 | 0.00 | 81 | 1007.4 |
| 20260510004015 | 20 | 359 | 3.2 | 3.2 | 0.00 | 0.00 | 0.00 | 80 | 1007.3 |
| 20260510003511 | 20 | 358 | 1.6 | 3.2 | 0.00 | 0.00 | 0.00 | 79 | 1007.4 |
| 20260510003006 | 20 | 341 | 3.2 | 3.2 | 0.00 | 0.00 | 0.00 | 79 | 1007.0 |
| 20260510002502 | 20 | 330 | 3.2 | 4.8 | 0.00 | 0.00 | 0.00 | 78 | 1007.2 |
| 20260510002000 | 21 | 327 | 3.2 | 4.8 | 0.00 | 0.00 | 0.00 | 79 | 1007.1 |
| 20260510001457 | 21 | 326 | 4.8 | 4.8 | 0.00 | 0.00 | 0.00 | 78 | 1006.9 |
| 20260510000955 | 21 | 332 | 4.8 | 4.8 | 0.00 | 0.00 | 0.00 | 78 | 1006.9 |
| 20260510000450 | 21 | 343 | 3.2 | 4.8 | 0.00 | 0.00 | 0.00 | 78 | 1006.8 |
| 20260509235947 | 21 | 325 | 3.2 | 4.8 | 0.00 | 0.00 | 0.00 | 77 | 1006.6 |
| 20260509235444 | 21 | 329 | 4.8 | 4.8 | 0.00 | 0.00 | 0.00 | 77 | 1006.6 |
| 20260509234940 | 21 | 313 | 4.8 | 4.8 | 0.00 | 0.00 | 0.00 | 77 | 1006.7 |
| 20260509234437 | 21 | 316 | 4.8 | 4.8 | 0.00 | 0.00 | 0.00 | 76 | 1006.5 |
| 20260509233935 | 21 | 306 | 4.8 | 8.0 | 0.00 | 0.00 | 0.00 | 76 | 1006.6 |
| 20260509233432 | 21 | 333 | 3.2 | 4.8 | 0.00 | 0.00 | 0.00 | 76 | 1006.3 |
| 20260509232928 | 21 | 328 | 4.8 | 4.8 | 0.00 | 0.00 | 0.00 | 75 | 1006.6 |
| 20260509232426 | 21 | 345 | 3.2 | 4.8 | 0.00 | 0.00 | 0.00 | 75 | 1006.4 |
| 20260509231921 | 21 | 314 | 4.8 | 8.0 | 0.00 | 0.00 | 0.00 | 75 | 1006.4 |
| 20260509231418 | 21 | 309 | 4.8 | 4.8 | 0.00 | 0.00 | 0.00 | 75 | 1006.3 |
| 20260509230916 | 21 | 288 | 9.7 | 9.7 | 0.00 | 0.00 | 0.00 | 74 | 1006.6 |
| 20260509230413 | 22 | 312 | 4.8 | 4.8 | 0.00 | 0.00 | 0.00 | 74 | 1006.2 |
| 20260509225909 | 22 | 321 | 4.8 | 8.0 | 0.00 | 0.00 | 0.00 | 73 | 1006.4 |
| 20260509225406 | 22 | 292 | 6.4 | 8.0 | 0.00 | 0.00 | 0.00 | 73 | 1006.3 |
| 20260509224901 | 22 | 291 | 8.0 | 9.7 | 0.00 | 0.00 | 0.00 | 73 | 1006.5 |
| 20260509224357 | 22 | 307 | 6.4 | 8.0 | 0.00 | 0.00 | 0.00 | 73 | 1006.4 |
| 20260509223855 | 22 | 309 | 6.4 | 9.7 | 0.00 | 0.00 | 0.00 | 73 | 1006.3 |
| 20260509223351 | 22 | 296 | 6.4 | 11.3 | 0.00 | 0.00 | 0.00 | 73 | 1006.1 |
| 20260509222848 | 22 | 304 | 6.4 | 9.7 | 0.00 | 0.00 | 0.00 | 74 | 1006.3 |
| 20260509222343 | 22 | 308 | 8.0 | 11.3 | 0.00 | 0.00 | 0.00 | 73 | 1005.9 |
| 20260509221838 | 22 | 295 | 8.0 | 9.7 | 0.00 | 0.00 | 0.00 | 72 | 1006.3 |
| 20260509221336 | 22 | 243 | 6.4 | 8.0 | 0.00 | 0.00 | 0.00 | 72 | 1006.4 |
| 20260509220831 | 22 | 296 | 8.0 | 11.3 | 0.00 | 0.00 | 0.00 | 73 | 1006.2 |
| 20260509220327 | 22 | 295 | 6.4 | 9.7 | 0.00 | 0.00 | 0.00 | 73 | 1006.0 |
| 20260509215823 | 22 | 256 | 6.4 | 12.9 | 0.00 | 0.00 | 0.00 | 74 | 1006.3 |
| 20260509215320 | 22 | 316 | 4.8 | 11.3 | 0.00 | 0.00 | 0.00 | 74 | 1006.3 |
| 20260509214817 | 22 | 308 | 6.4 | 11.3 | 0.00 | 0.00 | 0.00 | 75 | 1006.3 |
| 20260509214314 | 22 | 283 | 8.0 | 11.3 | 0.00 | 0.00 | 0.00 | 73 | 1006.2 |
| 20260509213811 | 22 | 319 | 4.8 | 9.7 | 0.00 | 0.00 | 0.00 | 74 | 1006.0 |
| 20260509213306 | 22 | 302 | 8.0 | 12.9 | 0.00 | 0.00 | 0.00 | 74 | 1006.3 |
| 20260509212804 | 22 | 251 | 8.0 | 9.7 | 0.00 | 0.00 | 0.00 | 73 | 1006.1 |
| 20260509212305 | 22 | 278 | 8.0 | 16.1 | 0.00 | 0.00 | 0.00 | 74 | 1006.2 |
| 20260509211756 | 22 | 299 | 4.8 | 9.7 | 0.00 | 0.00 | 0.00 | 74 | 1006.1 |
| 20260509211253 | 22 | 287 | 9.7 | 11.3 | 0.00 | 0.00 | 0.00 | 73 | 1006.0 |
| 20260509210750 | 22 | 294 | 4.8 | 11.3 | 0.00 | 0.00 | 0.00 | 73 | 1006.4 |
| 20260509210248 | 22 | 268 | 6.4 | 14.5 | 0.00 | 0.00 | 0.00 | 73 | 1006.3 |
| 20260509205747 | 22 | 283 | 6.4 | 9.7 | 0.00 | 0.00 | 0.00 | 73 | 1006.3 |
| 20260509205242 | 22 | 255 | 4.8 | 8.0 | 0.00 | 0.00 | 0.00 | 73 | 1006.3 |
| 20260509204738 | 22 | 290 | 8.0 | 11.3 | 0.00 | 0.00 | 0.00 | 73 | 1006.4 |
| 20260509204235 | 22 | 287 | 4.8 | 8.0 | 0.00 | 0.00 | 0.00 | 73 | 1006.2 |
| 20260509203731 | 22 | 330 | 4.8 | 9.7 | 0.00 | 0.00 | 0.00 | 72 | 1006.4 |
| 20260509203229 | 22 | 321 | 4.8 | 11.3 | 0.00 | 0.00 | 0.00 | 73 | 1006.5 |
| 20260509202724 | 22 | 272 | 9.7 | 11.3 | 0.00 | 0.00 | 0.00 | 74 | 1006.5 |
| 20260509202220 | 22 | 277 | 17.7 | 22.5 | 0.00 | 0.00 | 0.00 | 73 | 1006.6 |
| 20260509201715 | 22 | 295 | 8.0 | 11.3 | 0.00 | 0.00 | 0.00 | 73 | 1006.7 |
| 20260509201212 | 22 | 203 | 4.8 | 11.3 | 0.00 | 0.00 | 0.00 | 73 | 1006.8 |
| 20260509200708 | 22 | 285 | 8.0 | 11.3 | 0.00 | 0.00 | 0.00 | 72 | 1006.7 |
| 20260509200203 | 21 | 192 | 6.4 | 11.3 | 0.00 | 0.00 | 0.00 | 73 | 1006.9 |
| 20260509195700 | 21 | 246 | 8.0 | 12.9 | 0.00 | 0.00 | 0.00 | 73 | 1006.7 |
| 20260509195155 | 21 | 270 | 6.4 | 11.3 | 0.00 | 0.00 | 0.00 | 74 | 1006.8 |
| 20260509194649 | 21 | 289 | 8.0 | 12.9 | 0.00 | 0.00 | 0.00 | 73 | 1006.9 |
| 20260509194146 | 21 | 236 | 8.0 | 11.3 | 0.00 | 0.00 | 0.00 | 73 | 1007.0 |
| 20260509193642 | 21 | 335 | 6.4 | 14.5 | 0.00 | 0.00 | 0.00 | 74 | 1006.9 |
| 20260509193138 | 21 | 285 | 16.1 | 16.1 | 0.00 | 0.00 | 0.00 | 73 | 1006.9 |
| 20260509192635 | 21 | 288 | 11.3 | 11.3 | 0.00 | 0.00 | 0.00 | 73 | 1007.2 |
| 20260509192130 | 21 | 270 | 8.0 | 11.3 | 0.00 | 0.00 | 0.00 | 74 | 1007.1 |
| 20260509191629 | 21 | 294 | 8.0 | 11.3 | 0.00 | 0.00 | 0.00 | 73 | 1007.1 |
| 20260509191127 | 21 | 242 | 9.7 | 11.3 | 0.00 | 0.00 | 0.00 | 74 | 1007.2 |
| 20260509190623 | 21 | 279 | 8.0 | 9.7 | 0.00 | 0.00 | 0.00 | 74 | 1007.1 |
| 20260509190120 | 21 | 301 | 4.8 | 8.0 | 0.00 | 0.00 | 0.00 | 73 | 1007.1 |
| 20260509185618 | 21 | 275 | 6.4 | 8.0 | 0.00 | 0.00 | 0.00 | 73 | 1007.1 |
| 20260509185114 | 21 | 298 | 6.4 | 14.5 | 0.00 | 0.00 | 0.00 | 73 | 1007.3 |
| 20260509184612 | 21 | 310 | 6.4 | 8.0 | 0.00 | 0.00 | 0.00 | 74 | 1007.2 |
| 20260509184109 | 21 | 320 | 6.4 | 9.7 | 0.00 | 0.00 | 0.00 | 73 | 1007.5 |
| 20260509183604 | 21 | 298 | 9.7 | 11.3 | 0.00 | 0.00 | 0.00 | 73 | 1007.3 |
| 20260509183100 | 21 | 275 | 8.0 | 14.5 | 0.00 | 0.00 | 0.00 | 73 | 1007.4 |
| 20260509182556 | 21 | 282 | 4.8 | 8.0 | 0.00 | 0.00 | 0.00 | 73 | 1007.2 |
| 20260509182053 | 21 | 168 | 4.8 | 4.8 | 0.00 | 0.00 | 0.00 | 73 | 1007.4 |
| 20260509181552 | 21 | 296 | 4.8 | 9.7 | 0.00 | 0.00 | 0.00 | 73 | 1007.5 |
| 20260509181048 | 21 | 294 | 8.0 | 14.5 | 0.00 | 0.00 | 0.00 | 73 | 1007.4 |
| 20260509180544 | 21 | 281 | 6.4 | 8.0 | 0.00 | 0.00 | 0.00 | 73 | 1007.5 |
| 20260509180042 | 21 | 278 | 8.0 | 9.7 | 0.00 | 0.00 | 0.00 | 73 | 1007.4 |
| 20260509175537 | 21 | 271 | 8.0 | 9.7 | 0.00 | 0.00 | 0.00 | 73 | 1007.5 |
| 20260509175035 | 21 | 335 | 4.8 | 8.0 | 0.00 | 0.00 | 0.00 | 72 | 1007.3 |
| 20260509174531 | 21 | 310 | 6.4 | 11.3 | 0.00 | 0.00 | 0.00 | 73 | 1007.5 |
| 20260509174026 | 21 | 319 | 4.8 | 4.8 | 0.00 | 0.00 | 0.00 | 73 | 1007.4 |
| 20260509173520 | 21 | 316 | 4.8 | 11.3 | 0.00 | 0.00 | 0.00 | 74 | 1007.5 |
| 20260509173017 | 21 | 322 | 6.4 | 11.3 | 0.00 | 0.00 | 0.00 | 72 | 1007.4 |
| 20260509172514 | 21 | 277 | 11.3 | 12.9 | 0.00 | 0.00 | 0.00 | 73 | 1007.7 |
| 20260509172010 | 21 | 300 | 8.0 | 9.7 | 0.00 | 0.00 | 0.00 | 72 | 1007.6 |
| 20260509171506 | 21 | 319 | 4.8 | 8.0 | 0.00 | 0.00 | 0.00 | 72 | 1007.4 |
| 20260509171003 | 21 | 311 | 4.8 | 8.0 | 0.00 | 0.00 | 0.00 | 73 | 1007.3 |
| 20260509170458 | 21 | 298 | 8.0 | 11.3 | 0.00 | 0.00 | 0.00 | 73 | 1007.5 |
| 20260509165954 | 21 | 276 | 8.0 | 11.3 | 0.00 | 0.00 | 0.00 | 73 | 1007.7 |
| 20260509165453 | 21 | 353 | 6.4 | 11.3 | 0.00 | 0.00 | 0.00 | 72 | 1007.7 |
| 20260509164949 | 21 | 293 | 12.9 | 12.9 | 0.00 | 0.00 | 0.00 | 73 | 1007.4 |
| 20260509164445 | 21 | 311 | 4.8 | 8.0 | 0.00 | 0.00 | 0.00 | 73 | 1007.6 |
| 20260509163941 | 21 | 271 | 8.0 | 9.7 | 0.00 | 0.00 | 0.00 | 73 | 1007.7 |
| 20260509163438 | 21 | 289 | 6.4 | 8.0 | 0.00 | 0.00 | 0.00 | 73 | 1007.7 |
| 20260509162937 | 21 | 296 | 8.0 | 12.9 | 0.00 | 0.00 | 0.00 | 73 | 1007.8 |
| 20260509162437 | 21 | 292 | 9.7 | 11.3 | 0.00 | 0.00 | 0.00 | 74 | 1007.9 |
| 20260509161932 | 21 | 288 | 8.0 | 9.7 | 0.00 | 0.00 | 0.00 | 73 | 1008.0 |
| 20260509161429 | 21 | 280 | 8.0 | 11.3 | 0.00 | 0.00 | 0.00 | 73 | 1007.7 |
| 20260509160924 | 21 | 19 | 4.8 | 9.7 | 0.00 | 0.00 | 0.00 | 73 | 1007.9 |
| 20260509160420 | 20 | 297 | 6.4 | 9.7 | 0.00 | 0.00 | 0.00 | 73 | 1007.9 |
| 20260509155915 | 20 | 250 | 8.0 | 9.7 | 0.00 | 0.00 | 0.00 | 72 | 1007.7 |
| 20260509155412 | 20 | 61 | 3.2 | 11.3 | 0.00 | 0.00 | 0.00 | 72 | 1008.1 |
| 20260509154909 | 20 | 291 | 6.4 | 9.7 | 0.00 | 0.00 | 0.00 | 72 | 1008.0 |
| 20260509154405 | 20 | 288 | 11.3 | 16.1 | 0.00 | 0.00 | 0.00 | 73 | 1008.2 |
| 20260509153902 | 20 | 291 | 8.0 | 11.3 | 0.00 | 0.00 | 0.00 | 73 | 1008.3 |
| 20260509153359 | 20 | 286 | 9.7 | 12.9 | 0.00 | 0.00 | 0.00 | 73 | 1008.3 |
| 20260509152856 | 20 | 99 | 4.8 | 8.0 | 0.00 | 0.00 | 0.00 | 73 | 1008.2 |
| 20260509152352 | 20 | 298 | 4.8 | 9.7 | 0.00 | 0.00 | 0.00 | 73 | 1008.3 |
| 20260509151849 | 20 | 291 | 6.4 | 9.7 | 0.00 | 0.00 | 0.00 | 74 | 1008.4 |
| 20260509151345 | 20 | 299 | 4.8 | 9.7 | 0.00 | 0.00 | 0.00 | 76 | 1008.0 |
| 20260509150844 | 20 | 138 | 4.8 | 8.0 | 0.00 | 0.00 | 0.00 | 76 | 1007.9 |
| 20260509150341 | 20 | 302 | 4.8 | 8.0 | 0.00 | 0.00 | 0.00 | 76 | 1007.9 |
| 20260509145838 | 20 | 341 | 3.2 | 4.8 | 0.00 | 0.00 | 0.00 | 76 | 1008.2 |
| 20260509145332 | 20 | 292 | 8.0 | 11.3 | 0.00 | 0.00 | 0.00 | 76 | 1008.2 |
| 20260509144830 | 20 | 292 | 4.8 | 11.3 | 0.00 | 0.00 | 0.00 | 76 | 1008.2 |
| 20260509144326 | 19 | 288 | 8.0 | 9.7 | 0.00 | 0.00 | 0.00 | 77 | 1008.1 |
| 20260509143823 | 19 | 344 | 6.4 | 8.0 | 0.00 | 0.00 | 0.00 | 77 | 1008.3 |
| 20260509143321 | 19 | 60 | 1.6 | 3.2 | 0.00 | 0.00 | 0.00 | 77 | 1008.1 |
| 20260509142817 | 19 | 312 | 4.8 | 9.7 | 0.00 | 0.00 | 0.00 | 77 | 1008.2 |
| 20260509142313 | 19 | 292 | 4.8 | 9.7 | 0.00 | 0.00 | 0.00 | 77 | 1008.4 |
| 20260509141809 | 19 | 276 | 8.0 | 9.7 | 0.00 | 0.00 | 0.00 | 77 | 1008.5 |
| 20260509141306 | 19 | 300 | 8.0 | 11.3 | 0.00 | 0.00 | 0.00 | 76 | 1008.5 |
| 20260509140802 | 19 | 301 | 8.0 | 9.7 | 0.00 | 0.00 | 0.00 | 76 | 1008.8 |
| 20260509140259 | 19 | 335 | 4.8 | 11.3 | 0.00 | 0.00 | 0.00 | 78 | 1008.6 |
| 20260509135757 | 19 | 327 | 4.8 | 8.0 | 0.00 | 0.00 | 0.00 | 79 | 1008.9 |
| 20260509135254 | 19 | 319 | 4.8 | 9.7 | 0.00 | 0.00 | 0.00 | 78 | 1008.4 |
| 20260509134752 | 19 | 8 | 4.8 | 4.8 | 0.00 | 0.00 | 0.00 | 78 | 1008.5 |
| 20260509134249 | 19 | 43 | 0.0 | 1.6 | 0.00 | 0.00 | 0.00 | 78 | 1008.2 |
| 20260509133746 | 19 | 17 | 4.8 | 11.3 | 0.00 | 0.00 | 0.00 | 79 | 1008.4 |
| 20260509133243 | 19 | 287 | 8.0 | 11.3 | 0.00 | 0.00 | 0.00 | 78 | 1008.4 |